Preview of NWS' New Version of Forecast
This preview is not operational and should not be used for support decisions.

Regional Weather Roundup (RWR)

Issued by National Weather Service (NWS)

                            
000
ASUS43 KLSX 220557
RWRMO 

WEATHER SUMMARY FOR MISSOURI
NATIONAL WEATHER SERVICE SPRINGFIELD MO
100 AM CDT WED MAY 22 2019

NOTE: "FAIR" INDICATES FEW OR NO CLOUDS BELOW 12,000 FEET WITH NO
       SIGNIFICANT WEATHER AND/OR OBSTRUCTIONS TO VISIBILITY.
       CURRENT SKY AND/OR WEATHER CONDITIONS ARE NOT AVAILABLE FOR
       CHILLICOTHE AND FARMINGTON.

MOZ001>031-035>038-043-044-053-054-220700-
...NORTHERN AND WESTERN MISSOURI...
  
CITY           SKY/WX    TMP DP  RH WIND       PRES   REMARKS
KANSAS CTY INT CLEAR     62  54  74 S17G25    29.49S                  
6HR MIN TEMP:  59; 6HR MAX TEMP:  67; 6HR PCP:  0.14;                

LEE'S SUMMIT   CLEAR     61  54  77 S16G29    29.52S                  
6HR MIN TEMP:  61; 6HR MAX TEMP:  67;                                

ST JOSEPH      CLEAR     63  56  78 S16G26    29.44S                  
6HR MIN TEMP:  62; 6HR MAX TEMP:  67; 6HR PCP:  0.01;                

CHILLICOTHE      N/A     61  54  77 S10G22    29.54F                  
6HR MIN TEMP:  60; 6HR MAX TEMP:  61;                                

     
$$
MOZ066>068-077>081-088>096-101>105-220700-
...SOUTHWEST MISSOURI...
  
CITY           SKY/WX    TMP DP  RH WIND       PRES   REMARKS
SPRINGFIELD    CLEAR     57  52  83 S16       29.67R                  
6HR MIN TEMP:  57; 6HR MAX TEMP:  63;                                

JOPLIN         CLEAR     63  55  75 S18G28    29.60S                  
6HR MIN TEMP:  61; 6HR MAX TEMP:  68;                                

               
$$
MOZ032>034-039>042-045>050-055>058-069>072-220700-
...CENTRAL MISSOURI...  
  
CITY           SKY/WX    TMP DP  RH WIND       PRES   REMARKS
COLUMBIA       NOT AVBL                                               
JEFFERSON CITY CLEAR     58  53  84 E7        29.68S                  
6HR MIN TEMP:  58; 6HR MAX TEMP:  63; 6HR PCP:  0.02;                

ROLLA          CLEAR     58  53  84 S10       29.72R                  
6HR MIN TEMP:  57; 6HR MAX TEMP:  60; 6HR PCP:  0.09;                

SEDALIA        CLEAR     56  52  86 SE15G25   29.61F                  
6HR MIN TEMP:  55; 6HR MAX TEMP:  61;                                

WARRENSBURG    PTCLDY    59  52  77 SE14G23   29.56S                  
               
$$
MOZ051-052-059>065-220700-
...EAST CENTRAL MISSOURI...
  
CITY           SKY/WX    TMP DP  RH WIND       PRES   REMARKS
ST LOUIS INTL  CLOUDY    62  58  86 SE9       29.74F                  
6HR MIN TEMP:  62; 6HR MAX TEMP:  70; 6HR PCP:  1.20;                

                   
$$
MOZ072>076-082>087-097>100-106>115-220700-
...SOUTH CENTRAL AND SOUTHEAST MISSOURI...
  
CITY           SKY/WX    TMP DP  RH WIND       PRES   REMARKS
CAPE GIRARDEAU LGT RAIN  63  59  87 W6        29.82F                  
6HR MIN TEMP:  63; 6HR MAX TEMP:  82; 6HR PCP:  0.34;                

POPLAR BLUFF   HVY RAIN  61  61 100 S14G25    29.82R FOG              
6HR MIN TEMP:  61; 6HR MAX TEMP:  82; 6HR PCP:  1.14;                

WEST PLAINS    CLEAR     57  54  89 SE5       29.78R                  
6HR MIN TEMP:  57; 6HR MAX TEMP:  61; 6HR PCP:  0.05;                

                                       
$$